Погода в Алате

Узбекистан     39°24′48″N   63°48′08″E
темп.,
°C
ветер,
м/с
пор.,
м/с
влажн.,
%
обл.,
%
осадки,
мм/ч
давл.,
гПа
погр.,
м
1 марта, пн
пн123:00+8в452651 0.0 101866
02:00+8вюв55290 0.0 101778
05:00+6юв46410 0.0 101780
08:00+6ююв45580 0.0 1017100
11:00+13ю57280 0.0 1018435
14:00+18юз55160 0.0 1017813
17:00+18зсз33170 0.0 1016962
20:00+13ссз342938 0.0 101841
2 марта, вт
вт223:00+12с452969 0.0 102052
02:00+9св233476 0.0 102024
05:00+10ссв453286 0.0 102069
08:00+9с443499 0.0 102191
11:00+14с452479 0.0 1022559
14:00+17ссз44190 0.0 10221313
17:00+17ссз65200 0.0 10211499
20:00+11ссз8114025 0.0 1023365
3 марта, ср
ср323:00+8с695238 0.0 1023307
02:00+7с475775 0.0 1023208
05:00+5с476185 0.0 1023165
08:00+5ссв456278 0.0 1023145
11:00+11с334276 0.0 1023456
14:00+14ссз223356 0.0 10211290
17:00+15ссв213128 0.0 10191424
20:00+12всв34390 0.0 101996
4 марта, чт
чт423:00+10всв34430 0.0 101855
02:00+9всв45450 0.0 101758
05:00+9в444717 0.0 101650
08:00+10юв334267 0.0 101655
11:00+17ю453865 0.0 1017507
14:00+20юз77270 0.0 10171864
17:00+18зсз1010300 0.0 10181552
20:00+12сз8124521 0.0 1021659
5 марта, пт
пт523:00+10зсз795225 0.0 1024984
02:00+9ссз3463100 0.6 1026816
05:00+6в237767 0.6 102751
08:00+6в46740 0.0 1028189
11:00+10в56430 0.0 1027911
14:00+13всв55239 0.0 10231309
17:00+13всв671838 0.0 10201093
20:00+12св4829100 0.0 1017289